Storm Lake, IA

7:43 AM CDT on July 20, 2017 (GMT -0500)
Storm Lake Municipal

Weather History for KSLB - November, 2012

Change the Weather History Date:

Thursday, November 1, 2012

  Actual Average Record
Temperature  
Mean Temperature 42 °F -  
Max Temperature 50 °F 51 °F 73 °F (2001)
Min Temperature 35 °F 33 °F 14 °F (1996)
Degree Days  
Heating Degree Days 22    
Moisture  
Dew Point 32 °F    
Average Humidity 70    
Maximum Humidity 100    
Minimum Humidity 40    
Precipitation  
Precipitation 0.00 in - - ()
Sea Level Pressure  
Sea Level Pressure 29.98 in    
Wind  
Wind Speed 11 mph (North)    
Max Wind Speed 21 mph    
Max Gust Speed 24 mph    
Visibility 9 miles    
Events      
Averages and records for this station are not official NWS values.
T = Trace of Precipitation, MM = Missing Value Source: NWS Daily Summary

Daily Weather History Graph

Daily Weather History Graph

Search for Another Location

Airport or City:

Trip Planner

Search our weather history database for the weather conditions in past years. The results will help you decide how hot, cold, wet, or windy it might be!

Date:

Astronomy

Nov. 01, 2012 Rise Set
Actual Time 7:55 AM CDT 6:13 PM CDT
Civil Twilight 7:25 AM CDT 6:42 PM CDT
Nautical Twilight 6:52 AM CDT 7:15 PM CDT
Astronomical Twilight 6:19 AM CDT 7:48 PM CDT
Moon 8:08 PM CDT (11/1) 10:31 AM CDT (11/1)
Length of Visible Light 11h 16m
Length of Day
10h 17m
Waning Gibbous, 93% of the Moon is Illuminated
Nov 1
Waning Gibbous
Nov 6
Last Quarter
Nov 13
New
Nov 20
First Quarter
Nov 28
Full

Hourly Weather History & Observations

Time (CDT) Temp. Windchill Dew Point Humidity Pressure Visibility Wind Dir Wind Speed Gust Speed Precip Events Conditions
12:15 AM 44.6 °F 40.7 °F 33.8 °F 66% 29.95 in 10.0 mi WSW 6.9 mph - N/A   Scattered Clouds
12:35 AM 44.6 °F 40.2 °F 33.8 °F 66% 29.95 in 10.0 mi WSW 8.1 mph - N/A   Mostly Cloudy
1:15 AM 44.6 °F 40.7 °F 33.8 °F 66% 29.95 in 10.0 mi WSW 6.9 mph - N/A   Mostly Cloudy
1:35 AM 44.6 °F 40.7 °F 33.8 °F 66% 29.96 in 10.0 mi WSW 6.9 mph - N/A   Overcast
1:55 AM 44.6 °F 39.2 °F 33.8 °F 66% 29.96 in 10.0 mi West 10.4 mph - N/A   Overcast
2:15 AM 44.6 °F 39.2 °F 32.0 °F 61% 29.96 in 10.0 mi West 10.4 mph - N/A   Scattered Clouds
2:35 AM 42.8 °F 36.6 °F 32.0 °F 66% 29.96 in 10.0 mi West 11.5 mph - N/A   Clear
2:55 AM 42.8 °F 37.0 °F 33.8 °F 70% 29.96 in 10.0 mi West 10.4 mph - N/A   Partly Cloudy
3:15 AM 42.8 °F 36.6 °F 33.8 °F 70% 29.96 in 10.0 mi West 11.5 mph - N/A   Mostly Cloudy
3:35 AM 42.8 °F 37.0 °F 33.8 °F 70% 29.96 in 10.0 mi West 10.4 mph - N/A   Overcast
3:55 AM 42.8 °F 37.0 °F 33.8 °F 70% 29.95 in 10.0 mi West 10.4 mph - N/A   Overcast
4:15 AM 42.8 °F 36.2 °F 33.8 °F 70% 29.95 in 10.0 mi West 12.7 mph - N/A   Overcast
4:35 AM 42.8 °F 36.6 °F 33.8 °F 70% 29.95 in 10.0 mi West 11.5 mph - N/A   Overcast
4:55 AM 41.0 °F 34.7 °F 33.8 °F 76% 29.95 in 10.0 mi West 10.4 mph - N/A   Scattered Clouds
5:15 AM 39.2 °F 32.5 °F 33.8 °F 81% 29.95 in 10.0 mi WNW 10.4 mph - N/A   Clear
5:35 AM 42.8 °F 37.5 °F 33.8 °F 70% 29.95 in 10.0 mi NW 9.2 mph - N/A   Clear
5:55 AM 41.0 °F 34.3 °F 33.8 °F 76% 29.95 in 10.0 mi NNW 11.5 mph - N/A   Clear
6:15 AM 41.0 °F 34.3 °F 33.8 °F 76% 29.95 in 10.0 mi North 11.5 mph - N/A   Clear
6:35 AM 41.0 °F 34.3 °F 35.6 °F 81% 29.95 in 10.0 mi North 11.5 mph - N/A   Clear
6:55 AM 41.0 °F 34.3 °F 35.6 °F 81% 29.95 in 10.0 mi NNE 11.5 mph - N/A   Clear
7:15 AM 39.2 °F 33.0 °F 35.6 °F 87% 29.96 in 9.0 mi NNE 9.2 mph - N/A   Clear
7:35 AM 39.2 °F 32.0 °F 35.6 °F 87% 29.96 in 8.0 mi North 11.5 mph - N/A   Clear
7:55 AM 39.2 °F 31.6 °F 37.4 °F 93% 29.97 in 6.0 mi North 12.7 mph - N/A   Clear
8:35 AM 39.2 °F 31.2 °F 37.4 °F 93% 29.97 in 4.0 mi NNE 13.8 mph - N/A   Clear
9:15 AM 39.2 °F 30.2 °F 39.2 °F 100% 29.98 in 3.0 mi NNE 17.3 mph - N/A   Overcast
9:35 AM 41.0 °F 31.9 °F 39.2 °F 93% 29.99 in 3.0 mi NNE 19.6 mph - N/A   Overcast
9:55 AM 41.0 °F 31.6 °F 39.2 °F 93% 30.00 in 4.0 mi NNE 20.7 mph - N/A   Overcast
10:15 AM 41.0 °F 32.5 °F 39.2 °F 93% 30.01 in 5.0 mi NNE 17.3 mph 24.2 mph N/A   Overcast
10:35 AM 41.0 °F 32.8 °F 39.2 °F 93% 30.01 in 5.0 mi NNE 16.1 mph - N/A   Overcast
10:55 AM 41.0 °F 33.1 °F 39.2 °F 93% 30.02 in 6.0 mi North 15.0 mph - N/A   Overcast
11:15 AM 41.0 °F 33.9 °F 39.2 °F 93% 30.01 in 6.0 mi North 12.7 mph - N/A   Overcast
11:35 AM 41.0 °F 34.3 °F 39.2 °F 93% 30.01 in 7.0 mi North 11.5 mph - N/A   Overcast
11:55 AM 41.0 °F 33.1 °F 37.4 °F 87% 30.03 in 7.0 mi NNW 15.0 mph - N/A   Overcast
12:15 PM 41.0 °F 33.5 °F 37.4 °F 87% 30.03 in 8.0 mi North 13.8 mph - N/A   Overcast
12:35 PM 41.0 °F 33.9 °F 37.4 °F 87% 30.03 in 9.0 mi North 12.7 mph - N/A   Overcast
12:55 PM 42.8 °F 36.6 °F 35.6 °F 76% 30.01 in 10.0 mi North 11.5 mph - N/A   Mostly Cloudy
1:15 PM 46.4 °F 41.9 °F 35.6 °F 66% 30.00 in 10.0 mi NNW 9.2 mph - N/A   Partly Cloudy
1:35 PM 46.4 °F 41.5 °F 33.8 °F 62% 29.99 in 10.0 mi NNW 10.4 mph 16.1 mph N/A   Clear
1:55 PM 46.4 °F 41.5 °F 33.8 °F 62% 29.99 in 10.0 mi NNW 10.4 mph - N/A   Clear
2:15 PM 48.2 °F - 32.0 °F 54% 29.98 in 10.0 mi North 11.5 mph - N/A   Clear
2:35 PM 50.0 °F - 30.2 °F 47% 29.98 in 10.0 mi NNW 12.7 mph - N/A   Clear
2:55 PM 50.0 °F - 30.2 °F 47% 29.97 in 10.0 mi North 12.7 mph - N/A   Clear
3:15 PM 50.0 °F - 28.4 °F 43% 29.96 in 10.0 mi North 11.5 mph - N/A   Clear
3:35 PM 50.0 °F - 28.4 °F 43% 29.97 in 10.0 mi North 9.2 mph 16.1 mph N/A   Clear
3:55 PM 50.0 °F - 28.4 °F 43% 29.97 in 10.0 mi NNW 10.4 mph - N/A   Clear
4:15 PM 50.0 °F - 28.4 °F 43% 29.97 in 10.0 mi North 11.5 mph - N/A   Clear
4:35 PM 50.0 °F - 26.6 °F 40% 29.96 in 10.0 mi North 13.8 mph - N/A   Clear
4:55 PM 48.2 °F - 28.4 °F 46% 29.96 in 10.0 mi North 10.4 mph - N/A   Clear
5:15 PM 48.2 °F - 26.6 °F 43% 29.96 in 10.0 mi North 9.2 mph 15.0 mph N/A   Clear
5:35 PM 46.4 °F 41.9 °F 26.6 °F 46% 29.96 in 10.0 mi North 9.2 mph - N/A   Clear
5:55 PM 44.6 °F 39.7 °F 26.6 °F 49% 29.97 in 10.0 mi North 9.2 mph - N/A   Clear
6:15 PM 41.0 °F 36.4 °F 26.6 °F 57% 29.97 in 10.0 mi North 6.9 mph - N/A   Clear
6:35 PM 39.2 °F 34.2 °F 26.6 °F 61% 29.98 in 10.0 mi North 6.9 mph - N/A   Clear
6:55 PM 39.2 °F 33.6 °F 26.6 °F 61% 29.98 in 10.0 mi North 8.1 mph - N/A   Clear
7:15 PM 37.4 °F 31.4 °F 26.6 °F 65% 29.98 in 10.0 mi North 8.1 mph - N/A   Clear
7:35 PM 35.6 °F 28.6 °F 26.6 °F 70% 29.98 in 10.0 mi North 9.2 mph - N/A   Clear
7:55 PM 37.4 °F 30.8 °F 26.6 °F 65% 29.98 in 10.0 mi NNE 9.2 mph - N/A   Clear
8:15 PM 37.4 °F 30.8 °F 26.6 °F 65% 29.98 in 10.0 mi NNE 9.2 mph - N/A   Clear
8:35 PM 37.4 °F 29.8 °F 26.6 °F 65% 29.99 in 10.0 mi NNE 11.5 mph - N/A   Clear
8:55 PM 37.4 °F 30.3 °F 26.6 °F 65% 29.98 in 10.0 mi NNE 10.4 mph - N/A   Clear
9:15 PM 37.4 °F 30.3 °F 28.4 °F 70% 29.99 in 10.0 mi NNE 10.4 mph - N/A   Clear
9:35 PM 37.4 °F 29.8 °F 28.4 °F 70% 29.99 in 10.0 mi NNE 11.5 mph - N/A   Clear
9:55 PM 37.4 °F 29.8 °F 26.6 °F 65% 29.99 in 10.0 mi NNE 11.5 mph - N/A   Clear
10:15 PM 37.4 °F 29.8 °F 26.6 °F 65% 30.00 in 10.0 mi NNE 11.5 mph - N/A   Clear
10:35 PM 35.6 °F 27.5 °F 26.6 °F 70% 30.00 in 10.0 mi NNE 11.5 mph - N/A   Clear
10:55 PM 35.6 °F 27.5 °F 26.6 °F 70% 30.00 in 10.0 mi NE 11.5 mph - N/A   Clear
11:15 PM 35.6 °F 27.1 °F 26.6 °F 70% 30.00 in 10.0 mi NE 12.7 mph - N/A   Clear
11:35 PM 35.6 °F 27.1 °F 26.6 °F 70% 30.00 in 10.0 mi NE 12.7 mph - N/A   Clear
11:55 PM 35.6 °F 28.0 °F 28.4 °F 75% 30.01 in 10.0 mi NE 10.4 mph - N/A   Clear